Hourly Weather Golcza

Today, 18 May, Tuesday

Time Temperature Precipitation Wind Pressure Humidity
00:00 +8°C° 1.9 mm 4 mps 724 mmHg 96%
01:00 +8°C° 1.9 mm 5 mps 724 mmHg 95%
02:00 +8°C° 1.3 mm 5 mps 724 mmHg 95%
03:00 +8°C° 1.3 mm 5 mps 724 mmHg 95%
04:00 +7°C° 1.3 mm 4 mps 724 mmHg 94%
05:00 +7°C° 1.1 mm 5 mps 725 mmHg 95%
06:00 +7°C° 1.1 mm 5 mps 725 mmHg 95%
07:00 +8°C° 1.1 mm 5 mps 725 mmHg 96%
08:00 +8°C° 0.4 mm 5 mps 726 mmHg 94%
09:00 +8°C° 0.4 mm 6 mps 726 mmHg 91%
10:00 +9°C° 0.4 mm 6 mps 726 mmHg 89%
11:00 +10°C° 0.2 mm 6 mps 726 mmHg 84%
12:00 +11°C° 0.2 mm 6 mps 726 mmHg 78%
13:00 +14°C° 0.2 mm 7 mps 726 mmHg 72%
14:00 +14°C° 0.2 mm 7 mps 726 mmHg 73%
15:00 +14°C° 0.2 mm 6 mps 726 mmHg 74%
16:00 +14°C° 0.2 mm 6 mps 726 mmHg 74%
17:00 +13°C° 0.1 mm 5 mps 727 mmHg 78%
18:00 +12°C° 0.1 mm 4 mps 727 mmHg 81%
19:00 +11°C° 0.1 mm 4 mps 727 mmHg 84%
20:00 +10°C° 0 mm 3 mps 727 mmHg 87%
21:00 +9°C° 0 mm 3 mps 728 mmHg 90%
22:00 +8°C° 0 mm 3 mps 728 mmHg 93%
23:00 +8°C° 0 mm 3 mps 728 mmHg 93%

Tomorrow, 19 May, Wednesday

Time Temperature Precipitation Wind Pressure Humidity
00:00 +7°C° 0 mm 3 mps 728 mmHg 94%
01:00 +6°C° 0 mm 4 mps 728 mmHg 95%
02:00 +7°C° 0 mm 3 mps 728 mmHg 95%
03:00 +5°C° 0 mm 3 mps 728 mmHg 96%
04:00 +5°C° 0 mm 3 mps 729 mmHg 97%
05:00 +7°C° 0 mm 3 mps 729 mmHg 93%
06:00 +8°C° 0 mm 4 mps 729 mmHg 89%
07:00 +10°C° 0 mm 4 mps 729 mmHg 86%
08:00 +11°C° 0.2 mm 4 mps 730 mmHg 82%
09:00 +11°C° 0.2 mm 4 mps 730 mmHg 78%
10:00 +12°C° 0.2 mm 4 mps 730 mmHg 74%
11:00 +12°C° 0.1 mm 4 mps 730 mmHg 73%
12:00 +13°C° 0.1 mm 4 mps 730 mmHg 72%
13:00 +13°C° 0.1 mm 4 mps 729 mmHg 70%
14:00 +13°C° 0.3 mm 4 mps 729 mmHg 72%
15:00 +13°C° 0.3 mm 4 mps 729 mmHg 74%
16:00 +12°C° 0.3 mm 4 mps 730 mmHg 76%
17:00 +12°C° 0.3 mm 3 mps 730 mmHg 80%
18:00 +11°C° 0.3 mm 3 mps 730 mmHg 84%
19:00 +10°C° 0.3 mm 3 mps 730 mmHg 88%
20:00 +9°C° 0.1 mm 3 mps 730 mmHg 90%
21:00 +9°C° 0.1 mm 3 mps 730 mmHg 93%
22:00 +8°C° 0.1 mm 3 mps 730 mmHg 95%
23:00 +8°C° 0.1 mm 3 mps 730 mmHg 95%

Day after tomorrow, 20 May, Thursday

Time Temperature Precipitation Wind Pressure Humidity
00:00 +7°C° 0.1 mm 4 mps 730 mmHg 96%
01:00 +7°C° 0.1 mm 4 mps 730 mmHg 97%
02:00 +7°C° 0.4 mm 4 mps 730 mmHg 97%
03:00 +7°C° 0.4 mm 4 mps 730 mmHg 97%
04:00 +6°C° 0.4 mm 4 mps 730 mmHg 97%
05:00 +7°C° 0.6 mm 4 mps 731 mmHg 96%
06:00 +7°C° 0.6 mm 4 mps 731 mmHg 95%
07:00 +7°C° 0.6 mm 4 mps 731 mmHg 93%
08:00 +7°C° 0.1 mm 4 mps 732 mmHg 90%
09:00 +8°C° 0.1 mm 4 mps 732 mmHg 86%
10:00 +9°C° 0.1 mm 5 mps 732 mmHg 82%
11:00 +10°C° 0 mm 5 mps 732 mmHg 74%
12:00 +12°C° 0 mm 5 mps 732 mmHg 66%
13:00 +13°C° 0 mm 5 mps 732 mmHg 57%
14:00 +13°C° 0.1 mm 5 mps 732 mmHg 62%
15:00 +13°C° 0.1 mm 5 mps 732 mmHg 66%
16:00 +13°C° 0.1 mm 5 mps 732 mmHg 71%
17:00 +12°C° 0.3 mm 4 mps 732 mmHg 76%
18:00 +11°C° 0.3 mm 4 mps 733 mmHg 81%
19:00 +10°C° 0.3 mm 4 mps 733 mmHg 86%
20:00 +8°C° 0.1 mm 4 mps 733 mmHg 88%
21:00 +8°C° 0.1 mm 4 mps 733 mmHg 90%
22:00 +7°C° 0.1 mm 4 mps 734 mmHg 92%
23:00 +7°C° 0 mm 4 mps 734 mmHg 93%

21 May, Friday

Time Temperature Precipitation Wind Pressure Humidity
00:00 +6°C° 0 mm 4 mps 734 mmHg 94%
01:00 +5°C° 0 mm 3 mps 734 mmHg 95%
02:00 +4°C° 0 mm 3 mps 735 mmHg 95%
03:00 +4°C° 0 mm 3 mps 735 mmHg 95%
04:00 +4°C° 0 mm 2 mps 735 mmHg 96%
05:00 +5°C° 0 mm 3 mps 735 mmHg 90%
06:00 +7°C° 0 mm 3 mps 735 mmHg 85%
07:00 +9°C° 0 mm 3 mps 736 mmHg 80%
08:00 +10°C° 0.1 mm 3 mps 735 mmHg 75%
09:00 +11°C° 0.1 mm 3 mps 735 mmHg 70%
10:00 +12°C° 0.1 mm 4 mps 735 mmHg 65%
11:00 +13°C° 0.1 mm 3 mps 735 mmHg 63%
12:00 +13°C° 0.1 mm 3 mps 734 mmHg 61%
13:00 +13°C° 0.1 mm 3 mps 734 mmHg 60%
14:00 +14°C° 0 mm 3 mps 734 mmHg 59%
15:00 +15°C° 0 mm 2 mps 733 mmHg 59%
16:00 +15°C° 0 mm 2 mps 733 mmHg 59%
17:00 +14°C° 0 mm 2 mps 733 mmHg 63%
18:00 +13°C° 0 mm 2 mps 732 mmHg 68%
19:00 +12°C° 0 mm 2 mps 732 mmHg 72%
20:00 +10°C° 0 mm 2 mps 732 mmHg 74%
21:00 +10°C° 0 mm 2 mps 732 mmHg 77%
22:00 +9°C° 0 mm 2 mps 732 mmHg 79%
23:00 +9°C° 0 mm 2 mps 731 mmHg 79%

22 May, Saturday

Time Temperature Precipitation Wind Pressure Humidity
00:00 +8°C° 0 mm 2 mps 731 mmHg 80%
01:00 +8°C° 0 mm 2 mps 730 mmHg 80%
02:00 +8°C° 0 mm 2 mps 730 mmHg 80%
03:00 +7°C° 0 mm 2 mps 730 mmHg 81%
04:00 +7°C° 0 mm 2 mps 729 mmHg 81%
05:00 +9°C° 0 mm 3 mps 729 mmHg 77%
06:00 +10°C° 0 mm 3 mps 729 mmHg 73%
07:00 +12°C° 0 mm 3 mps 729 mmHg 69%
08:00 +13°C° 0 mm 3 mps 729 mmHg 65%
09:00 +16°C° 0 mm 3 mps 729 mmHg 61%
10:00 +17°C° 0 mm 3 mps 729 mmHg 57%
11:00 +18°C° 0 mm 3 mps 729 mmHg 55%
12:00 +19°C° 0 mm 3 mps 729 mmHg 53%
13:00 +20°C° 0 mm 3 mps 729 mmHg 51%
14:00 +18°C° 0.4 mm 3 mps 729 mmHg 60%
15:00 +16°C° 0.4 mm 2 mps 728 mmHg 69%
16:00 +15°C° 0.4 mm 2 mps 728 mmHg 79%
17:00 +13°C° 0.5 mm 3 mps 728 mmHg 84%
18:00 +12°C° 0.5 mm 3 mps 728 mmHg 89%
19:00 +10°C° 0.5 mm 3 mps 729 mmHg 94%
20:00 +10°C° 0.6 mm 3 mps 729 mmHg 95%
21:00 +9°C° 0.6 mm 3 mps 729 mmHg 95%
22:00 +9°C° 0.6 mm 3 mps 729 mmHg 96%
23:00 +9°C° 0.6 mm 3 mps 729 mmHg 96%

23 May, Sunday

Time Temperature Precipitation Wind Pressure Humidity
00:00 +8°C° 0.6 mm 3 mps 729 mmHg 95%
01:00 +8°C° 0.6 mm 2 mps 729 mmHg 95%
02:00 +8°C° 0 mm 2 mps 729 mmHg 94%
03:00 +7°C° 0 mm 2 mps 729 mmHg 94%
04:00 +6°C° 0 mm 2 mps 729 mmHg 93%
05:00 +7°C° 0 mm 3 mps 730 mmHg 89%
06:00 +9°C° 0 mm 3 mps 730 mmHg 85%
07:00 +10°C° 0 mm 3 mps 730 mmHg 80%
08:00 +11°C° 0 mm 3 mps 730 mmHg 73%
09:00 +14°C° 0 mm 2 mps 730 mmHg 65%
10:00 +15°C° 0 mm 2 mps 730 mmHg 58%
11:00 +16°C° 0 mm 2 mps 730 mmHg 55%
12:00 +18°C° 0 mm 1 mps 730 mmHg 52%
13:00 +18°C° 0 mm 1 mps 730 mmHg 49%
14:00 +18°C° 0.1 mm 1 mps 730 mmHg 53%
15:00 +17°C° 0.1 mm 2 mps 730 mmHg 56%
16:00 +16°C° 0.1 mm 2 mps 730 mmHg 60%
17:00 +15°C° 0.1 mm 2 mps 730 mmHg 68%
18:00 +13°C° 0.1 mm 2 mps 731 mmHg 75%
19:00 +11°C° 0.1 mm 3 mps 731 mmHg 83%
20:00 +11°C° 0 mm 3 mps 731 mmHg 83%
21:00 +10°C° 0 mm 2 mps 731 mmHg 84%
22:00 +10°C° 0 mm 2 mps 732 mmHg 84%
23:00 +10°C° 0.1 mm 2 mps 732 mmHg 86%
Show more